Bigfork, MN

8:52 AM CST on February 25, 2017 (GMT -0600)
Bigfork Municipal

Weather History for KFOZ - March, 2012

Change the Weather History Date:

Friday, March 16, 2012

  Actual Average (KGPZ) Record (KGPZ)
Temperature  
Mean Temperature 52 °F -  
Max Temperature 71 °F 38 °F 71 °F (2012)
Min Temperature 33 °F 13 °F -17 °F (1928)
Degree Days  
Heating Degree Days 13    
Growing Degree Days 2 (Base 50)    
Moisture  
Dew Point 28 °F    
Average Humidity 42    
Maximum Humidity 63    
Minimum Humidity 29    
Precipitation  
Precipitation 0.00 in - - ()
Sea Level Pressure  
Sea Level Pressure 29.89 in    
Wind  
Wind Speed 4 mph (SSE)    
Max Wind Speed 15 mph    
Max Gust Speed 22 mph    
Visibility 10 miles    
Events      
Averages and records for this station are not official NWS values.
T = Trace of Precipitation, MM = Missing Value Source: NWS Daily Summary

Daily Weather History Graph

Daily Weather History Graph

Search for Another Location

Airport or City:

Trip Planner

Search our weather history database for the weather conditions in past years. The results will help you decide how hot, cold, wet, or windy it might be!

Date:

Astronomy

Mar. 16, 2012 Rise Set
Actual Time 7:24 AM CDT 7:22 PM CDT
Civil Twilight 6:53 AM CDT 7:53 PM CDT
Nautical Twilight 6:17 AM CDT 8:29 PM CDT
Astronomical Twilight 5:40 AM CDT 9:06 PM CDT
Moon 4:06 AM CDT (3/16) 1:20 PM CDT (3/16)
Length of Visible Light 12h 59m
Length of Day
11h 57m
Waning Crescent, 32% of the Moon is Illuminated
Mar 16
Waning Crescent
Mar 22
New
Mar 30
First Quarter
Apr 6
Full
Apr 13
Last Quarter

Hourly Weather History & Observations

Time (CDT) Temp. Windchill Dew Point Humidity Pressure Visibility Wind Dir Wind Speed Gust Speed Precip Events Conditions
12:14 AM 39.2 °F - 14.0 °F 36% 30.01 in 10.0 mi Calm Calm - N/A   Clear
12:34 AM 35.6 °F 32.8 °F 17.6 °F 48% 30.01 in 10.0 mi South 3.5 mph - N/A   Clear
12:54 AM 37.4 °F 34.9 °F 15.8 °F 41% 30.00 in 10.0 mi SSE 3.5 mph - N/A   Clear
1:14 AM 37.4 °F 34.9 °F 15.8 °F 41% 30.01 in 10.0 mi South 3.5 mph - N/A   Clear
1:34 AM 37.4 °F 34.9 °F 15.8 °F 41% 30.00 in 10.0 mi South 3.5 mph - N/A   Clear
1:54 AM 39.2 °F - 15.8 °F 39% 30.00 in 10.0 mi Calm Calm - N/A   Clear
2:14 AM 37.4 °F 34.9 °F 15.8 °F 41% 30.00 in 10.0 mi South 3.5 mph - N/A   Clear
2:34 AM 37.4 °F 34.9 °F 15.8 °F 41% 29.99 in 10.0 mi South 3.5 mph - N/A   Clear
2:54 AM 37.4 °F - 15.8 °F 41% 29.99 in 10.0 mi Calm Calm - N/A   Clear
3:34 AM 35.6 °F - 12.2 °F 38% 29.98 in 10.0 mi Calm Calm - N/A   Clear
3:54 AM 35.6 °F - 12.2 °F 38% 29.98 in 10.0 mi Calm Calm - N/A   Clear
4:14 AM 35.6 °F - 12.2 °F 38% 29.98 in 10.0 mi Calm Calm - N/A   Clear
4:34 AM 37.4 °F 34.9 °F 12.2 °F 36% 29.97 in 10.0 mi SE 3.5 mph - N/A   Clear
4:54 AM 35.6 °F - 12.2 °F 38% 29.97 in 10.0 mi Calm Calm - N/A   Clear
5:14 AM 35.6 °F - 14.0 °F 41% 29.98 in 10.0 mi Calm Calm - N/A   Clear
5:34 AM 37.4 °F - 12.2 °F 36% 29.98 in 10.0 mi Calm Calm - N/A   Clear
5:54 AM 37.4 °F - 12.2 °F 36% 29.98 in 10.0 mi Calm Calm - N/A   Clear
6:14 AM 37.4 °F - 12.2 °F 36% 29.98 in 10.0 mi Calm Calm - N/A   Clear
6:34 AM 33.8 °F 30.8 °F 14.0 °F 44% 29.99 in 10.0 mi NNE 3.5 mph - N/A   Clear
6:54 AM 33.8 °F 30.8 °F 12.2 °F 41% 29.99 in 10.0 mi SE 3.5 mph - N/A   Clear
7:14 AM 33.8 °F - 14.0 °F 44% 29.97 in 10.0 mi Calm Calm - N/A   Clear
7:34 AM 33.8 °F - 12.2 °F 41% 29.96 in 10.0 mi Calm Calm - N/A   Clear
7:54 AM 33.8 °F 30.8 °F 12.2 °F 41% 29.97 in 10.0 mi North 3.5 mph - N/A   Clear
8:14 AM 33.8 °F - 14.0 °F 44% 29.97 in 10.0 mi Calm Calm - N/A   Clear
8:34 AM 37.4 °F - 17.6 °F 45% 29.96 in 10.0 mi Calm Calm - N/A   Clear
8:54 AM 39.2 °F - 17.6 °F 42% 29.96 in 10.0 mi Calm Calm - N/A   Clear
9:14 AM 41.0 °F - 17.6 °F 39% 29.96 in 10.0 mi Calm Calm - N/A   Clear
9:34 AM 42.8 °F 41.1 °F 17.6 °F 36% 29.95 in 10.0 mi ESE 3.5 mph - N/A   Clear
9:54 AM 44.6 °F - 19.4 °F 37% 29.94 in 10.0 mi Calm Calm - N/A   Clear
10:14 AM 48.2 °F - 19.4 °F 32% 29.94 in 10.0 mi ESE 4.6 mph - N/A   Clear
10:34 AM 50.0 °F - 21.2 °F 32% 29.93 in 10.0 mi SE 3.5 mph - N/A   Clear
10:54 AM 51.8 °F - 23.0 °F 33% 29.93 in 10.0 mi SE 4.6 mph - N/A   Clear
11:14 AM 55.4 °F - 24.8 °F 31% 29.92 in 10.0 mi SE 6.9 mph - N/A   Clear
11:34 AM 55.4 °F - 26.6 °F 33% 29.91 in 10.0 mi SE 6.9 mph - N/A   Clear
11:54 AM 57.2 °F - 26.6 °F 31% 29.90 in 10.0 mi ESE 4.6 mph - N/A   Clear
12:14 PM 60.8 °F - 28.4 °F 29% 29.89 in 10.0 mi SE 4.6 mph - N/A   Clear
12:54 PM 64.4 °F - 39.2 °F 40% 29.87 in 10.0 mi SE 10.4 mph - N/A   Clear
1:14 PM 64.4 °F - 42.8 °F 45% 29.86 in 10.0 mi SSE 11.5 mph 17.3 mph N/A   Clear
1:34 PM 68.0 °F - 44.6 °F 43% 29.85 in 10.0 mi SE 11.5 mph - N/A   Clear
1:54 PM 68.0 °F - 42.8 °F 40% 29.84 in 10.0 mi SSE 15.0 mph - N/A   Clear
2:14 PM 68.0 °F - 42.8 °F 40% 29.82 in 10.0 mi South 12.7 mph - N/A   Clear
2:34 PM 69.8 °F - 42.8 °F 38% 29.82 in 10.0 mi SSE 11.5 mph 16.1 mph N/A   Clear
2:54 PM 69.8 °F - 44.6 °F 40% 29.81 in 10.0 mi SE 9.2 mph - N/A   Clear
3:14 PM 71.6 °F - 46.4 °F 41% 29.80 in 10.0 mi SSE 9.2 mph - N/A   Clear
3:34 PM 71.6 °F - 46.4 °F 41% 29.79 in 10.0 mi South 12.7 mph 18.4 mph N/A   Clear
3:54 PM 71.6 °F - 44.6 °F 38% 29.79 in 10.0 mi South 11.5 mph - N/A   Clear
4:14 PM 71.6 °F - 44.6 °F 38% 29.78 in 10.0 mi South 9.2 mph 18.4 mph N/A   Clear
4:34 PM 71.6 °F - 44.6 °F 38% 29.77 in 10.0 mi South 13.8 mph 18.4 mph N/A   Clear
4:54 PM 69.8 °F - 44.6 °F 40% 29.77 in 10.0 mi South 13.8 mph 21.9 mph N/A   Clear
5:34 PM 71.6 °F - 44.6 °F 38% 29.76 in 10.0 mi SSE 6.9 mph - N/A   Clear
5:54 PM 69.8 °F - 44.6 °F 40% 29.75 in 10.0 mi SSE 8.1 mph 17.3 mph N/A   Clear
6:15 PM 69.8 °F - 46.4 °F 43% 29.76 in 10.0 mi SSE 8.1 mph 17.3 mph N/A   Clear
6:34 PM 66.2 °F - 44.6 °F 46% 29.76 in 10.0 mi SE 11.5 mph 16.1 mph N/A   Clear
6:54 PM 64.4 °F - 44.6 °F 49% 29.76 in 10.0 mi SE 9.2 mph - N/A   Clear
7:14 PM 62.6 °F - 42.8 °F 48% 29.76 in 10.0 mi SE 10.4 mph - N/A   Clear
7:34 PM 60.8 °F - 42.8 °F 52% 29.76 in 10.0 mi SE 6.9 mph - N/A   Clear
7:54 PM 57.2 °F - 42.8 °F 59% 29.76 in 10.0 mi SE 8.1 mph - N/A   Clear
8:14 PM 57.2 °F - 42.8 °F 59% 29.76 in 10.0 mi SE 8.1 mph - N/A   Clear
8:34 PM 57.2 °F - 42.8 °F 59% 29.77 in 10.0 mi SSE 8.1 mph - N/A   Clear
8:54 PM 57.2 °F - 44.6 °F 63% 29.77 in 10.0 mi SSE 10.4 mph - N/A   Clear
9:14 PM 57.2 °F - 44.6 °F 63% 29.77 in 10.0 mi SSE 6.9 mph - N/A   Clear
9:34 PM 55.4 °F - 42.8 °F 63% 29.77 in 10.0 mi SSE 9.2 mph - N/A   Clear
9:54 PM 55.4 °F - 42.8 °F 63% 29.77 in 10.0 mi SSE 9.2 mph - N/A   Clear
10:14 PM 53.6 °F - 42.8 °F 67% 29.77 in 10.0 mi SSE 8.1 mph - N/A   Clear
10:34 PM 53.6 °F - 42.8 °F 67% 29.76 in 10.0 mi SSE 8.1 mph - N/A   Clear
10:54 PM 53.6 °F - 42.8 °F 67% 29.74 in 10.0 mi SSE 9.2 mph - N/A   Clear
11:14 PM 53.6 °F - 42.8 °F 67% 29.74 in 10.0 mi SSE 8.1 mph - N/A   Clear
11:34 PM 51.8 °F - 42.8 °F 71% 29.74 in 10.0 mi SSE 6.9 mph - N/A   Clear
11:54 PM 51.8 °F - 42.8 °F 71% 29.74 in 10.0 mi SSE 9.2 mph - N/A   Clear